,,PA_Meas_PMT16A,,PR_Meas_QMR101_102,,RH_Meas_QMH101,,SR_Meas_QMS101,,TA_Meas_QMH101,,GenWind,,GenWind,
time,status,PA,status,PR,status,RH,status,SR,status,TA,status,DirAvg,status,SpdAvg,
2013-09-19, 06:48:04,VALID,916.082,VALID,0,VALID,96.9394,VALID,76.0683,VALID,19.5468,VALID,135,VALID,0,
2013-09-19, 06:49:04,VALID,916.105,VALID,0,VALID,96.9317,VALID,84.8785,VALID,19.5663,VALID,135,VALID,0,
2013-09-19, 06:50:04,VALID,916.135,VALID,0,VALID,96.9317,VALID,74.4567,VALID,19.5858,VALID,119,VALID,0,
2013-09-19, 06:51:04,VALID,916.16,VALID,0,VALID,96.9317,VALID,74.9939,VALID,19.6053,VALID,102,VALID,0,
2013-09-19, 06:52:04,VALID,916.167,VALID,0,VALID,96.9622,VALID,112.598,VALID,19.6443,VALID,102,VALID,0,
2013-09-19, 06:53:04,VALID,916.172,VALID,0,VALID,96.947,VALID,113.028,VALID,19.7418,VALID,101,VALID,0,
2013-09-19, 06:54:04,VALID,916.199,VALID,0,VALID,96.9317,VALID,71.9856,VALID,19.7613,VALID,101,VALID,0,
2013-09-19, 06:55:04,VALID,916.216,VALID,0,VALID,96.9165,VALID,74.1344,VALID,19.8393,VALID,101,VALID,0,
2013-09-19, 06:56:04,VALID,916.232,VALID,0,VALID,96.9317,VALID,135.376,VALID,19.9173,VALID,101,VALID,0,
2013-09-19, 06:57:04,VALID,916.263,VALID,0,VALID,96.9089,VALID,112.598,VALID,20.0343,VALID,101,VALID,0,
2013-09-19, 06:58:04,VALID,916.239,VALID,0,VALID,96.9317,VALID,81.4404,VALID,20.0928,VALID,101,VALID,0,
2013-09-19, 06:59:04,VALID,916.25,VALID,0,VALID,96.9241,VALID,89.9282,VALID,20.1139,VALID,101,VALID,0,
2013-09-19, 07:00:04,VALID,916.246,VALID,0,VALID,96.9012,VALID,78.1097,VALID,20.1318,VALID,101,VALID,0,
2013-09-19, 07:01:04,VALID,916.289,VALID,0,VALID,96.9012,VALID,78.1097,VALID,20.0913,VALID,126,VALID,0,
2013-09-19, 07:02:04,VALID,916.302,VALID,0,VALID,96.9012,VALID,90.4654,VALID,20.1513,VALID,126,VALID,0,
2013-09-19, 07:03:04,VALID,916.333,VALID,0,VALID,96.8936,VALID,131.293,VALID,20.1708,VALID,127,VALID,0,
2013-09-19, 07:04:04,VALID,916.302,VALID,0,VALID,96.8707,VALID,146.979,VALID,20.2489,VALID,135,VALID,0,
2013-09-19, 07:05:04,VALID,916.338,VALID,0,VALID,96.8707,VALID,132.582,VALID,20.2489,VALID,142,VALID,0,
2013-09-19, 07:06:04,VALID,916.31,VALID,0,VALID,96.8555,VALID,91.6473,VALID,20.1903,VALID,191,VALID,0,
2013-09-19, 07:07:04,VALID,916.274,VALID,0,VALID,96.8403,VALID,115.177,VALID,20.1513,VALID,191,VALID,0,
2013-09-19, 07:08:04,VALID,916.229,VALID,0,VALID,96.825,VALID,116.574,VALID,20.1498,VALID,185,VALID,0,
2013-09-19, 07:09:04,VALID,916.238,VALID,0,VALID,96.8326,VALID,148.376,VALID,20.1693,VALID,185,VALID,0,
2013-09-19, 07:10:04,VALID,916.269,VALID,0,VALID,96.8326,VALID,184.691,VALID,20.2668,VALID,185,VALID,0,
2013-09-19, 07:11:04,VALID,916.29,VALID,0,VALID,96.8098,VALID,183.509,VALID,20.2668,VALID,185,VALID,0,
2013-09-19, 07:12:04,VALID,916.306,VALID,0,VALID,96.8098,VALID,176.526,VALID,20.2684,VALID,149,VALID,0,
2013-09-19, 07:13:04,VALID,916.29,VALID,0,VALID,96.8021,VALID,173.088,VALID,20.2278,VALID,149,VALID,0,
2013-09-19, 07:14:04,VALID,916.311,VALID,0,VALID,96.764,VALID,170.617,VALID,20.2098,VALID,149,VALID,0,
2013-09-19, 07:15:04,VALID,916.316,VALID,0,VALID,96.7335,VALID,189.956,VALID,20.2668,VALID,149,VALID,0,
2013-09-19, 07:16:04,VALID,916.316,VALID,0,VALID,96.6954,VALID,231.536,VALID,20.3659,VALID,149,VALID,0,
2013-09-19, 07:17:04,VALID,916.373,VALID,0,VALID,96.6573,VALID,243.999,VALID,20.5399,VALID,149,VALID,0,
2013-09-19, 07:18:04,VALID,916.354,VALID,0,VALID,96.6192,VALID,251.09,VALID,20.7755,VALID,149,VALID,0,
2013-09-19, 07:19:04,VALID,916.364,VALID,0,VALID,96.4972,VALID,250.338,VALID,20.8535,VALID,149,VALID,0,
2013-09-19, 07:20:04,VALID,916.395,VALID,0,VALID,96.3295,VALID,254.313,VALID,21.008,VALID,128,VALID,0,
2013-09-19, 07:21:04,VALID,916.39,VALID,0,VALID,96.1084,VALID,258.826,VALID,21.1055,VALID,42,VALID,0,
2013-09-19, 07:22:04,VALID,916.422,VALID,0,VALID,95.8416,VALID,268.603,VALID,21.2421,VALID,41,VALID,0,
2013-09-19, 07:23:04,VALID,916.447,VALID,0,VALID,95.2775,VALID,268.925,VALID,21.3006,VALID,8,VALID,0,
2013-09-19, 07:24:04,VALID,916.456,VALID,0,VALID,94.4694,VALID,270.322,VALID,21.4762,VALID,46,VALID,0,
2013-09-19, 07:25:04,VALID,916.473,VALID,0,VALID,92.8685,VALID,271.074,VALID,21.6518,VALID,37,VALID,0,
2013-09-19, 07:26:04,VALID,916.533,VALID,0,VALID,90.6577,VALID,271.289,VALID,21.6518,VALID,35,VALID,0,
2013-09-19, 07:27:04,VALID,916.559,VALID,0,VALID,90.3299,VALID,271.611,VALID,21.712,VALID,26,VALID,0,
2013-09-19, 07:28:04,VALID,916.56,VALID,0,VALID,88.9653,VALID,277.091,VALID,21.79,VALID,30,VALID,0,
2013-09-19, 07:29:04,VALID,916.584,VALID,0,VALID,88.95,VALID,278.165,VALID,21.829,VALID,3,VALID,0,
2013-09-19, 07:30:04,VALID,916.574,VALID,0,VALID,89.4303,VALID,284.504,VALID,21.829,VALID,351,VALID,0,
2013-09-19, 07:31:04,VALID,916.608,VALID,0,VALID,89.3083,VALID,290.091,VALID,21.8485,VALID,356,VALID,0,
2013-09-19, 07:32:04,VALID,916.637,VALID,0,VALID,89.3541,VALID,289.661,VALID,21.9266,VALID,17,VALID,0,
2013-09-19, 07:33:04,VALID,916.663,VALID,0,VALID,88.3325,VALID,294.604,VALID,21.9851,VALID,337,VALID,0,
2013-09-19, 07:34:04,VALID,916.674,VALID,0,VALID,88.5002,VALID,299.331,VALID,21.9444,VALID,4,VALID,0,
2013-09-19, 07:35:04,VALID,916.676,VALID,0,VALID,89.072,VALID,295.033,VALID,21.9623,VALID,10,VALID,0,
2013-09-19, 07:36:04,VALID,916.675,VALID,0,VALID,88.3935,VALID,303.306,VALID,22.0989,VALID,16,VALID,0,
2013-09-19, 07:37:04,VALID,916.681,VALID,0,VALID,87.837,VALID,305.885,VALID,22.1752,VALID,353,VALID,0,
2013-09-19, 07:38:04,VALID,916.696,VALID,0,VALID,87.1585,VALID,307.604,VALID,22.2159,VALID,336,VALID,0,
2013-09-19, 07:39:04,VALID,916.636,VALID,0,VALID,86.7392,VALID,310.72,VALID,22.333,VALID,2,VALID,0,
2013-09-19, 07:40:04,VALID,916.614,VALID,0,VALID,84.7724,VALID,315.662,VALID,22.4891,VALID,348,VALID,0,
2013-09-19, 07:41:04,VALID,916.635,VALID,0,VALID,83.2553,VALID,319.423,VALID,22.4874,VALID,350,VALID,0,
2013-09-19, 07:42:04,VALID,916.67,VALID,0,VALID,84.9325,VALID,324.365,VALID,22.5672,VALID,324,VALID,0,
2013-09-19, 07:43:04,VALID,916.7,VALID,0,VALID,83.728,VALID,327.696,VALID,22.6062,VALID,43,VALID,0,
2013-09-19, 07:44:04,VALID,916.758,VALID,0,VALID,82.8055,VALID,332.315,VALID,22.7038,VALID,25,VALID,0,
2013-09-19, 07:45:04,VALID,916.766,VALID,0,VALID,80.9149,VALID,339.407,VALID,22.8421,VALID,17,VALID,0,
2013-09-19, 07:46:04,VALID,916.76,VALID,0,VALID,80.2669,VALID,347.787,VALID,22.8989,VALID,38,VALID,0,
2013-09-19, 07:47:04,VALID,916.795,VALID,0,VALID,80.4652,VALID,347.142,VALID,23.0356,VALID,27,VALID,0,
2013-09-19, 07:48:04,VALID,916.8,VALID,0,VALID,80.427,VALID,226.808,VALID,23.0941,VALID,21,VALID,0,
2013-09-19, 07:49:04,VALID,916.806,VALID,0,VALID,79.9163,VALID,176.096,VALID,23.0746,VALID,360,VALID,0,
2013-09-19, 07:50:04,VALID,916.843,VALID,0,VALID,80.2669,VALID,173.303,VALID,22.8794,VALID,358,VALID,0,
2013-09-19, 07:51:04,VALID,916.827,VALID,0,VALID,81.8679,VALID,238.519,VALID,22.6843,VALID,357,VALID,0,
2013-09-19, 07:52:04,VALID,916.859,VALID,0,VALID,81.967,VALID,292.455,VALID,22.5281,VALID,9,VALID,0,
2013-09-19, 07:53:04,VALID,916.892,VALID,0,VALID,82.9275,VALID,283.645,VALID,22.5086,VALID,348,VALID,0,
2013-09-19, 07:54:04,VALID,916.88,VALID,0,VALID,82.7064,VALID,222.833,VALID,22.5086,VALID,32,VALID,0,
2013-09-19, 07:55:04,VALID,916.889,VALID,0,VALID,82.0584,VALID,246.363,VALID,22.3703,VALID,21,VALID,0,
2013-09-19, 07:56:04,VALID,916.92,VALID,0,VALID,81.8831,VALID,232.503,VALID,22.2533,VALID,25,VALID,0,
2013-09-19, 07:57:04,VALID,916.939,VALID,0,VALID,83.2934,VALID,202.741,VALID,22.1964,VALID,16,VALID,0,
2013-09-19, 07:58:04,VALID,916.938,VALID,0,VALID,83.0038,VALID,246.9,VALID,22.2159,VALID,17,VALID,0,
2013-09-19, 07:59:04,VALID,916.994,VALID,0,VALID,81.5858,VALID,198.766,VALID,22.2745,VALID,359,VALID,0,
2013-09-19, 08:00:04,VALID,916.992,VALID,0,VALID,81.906,VALID,172.658,VALID,22.2728,VALID,47,VALID,0,
2013-09-19, 08:01:04,VALID,917.01,VALID,0,VALID,81.4257,VALID,200.593,VALID,22.2142,VALID,353,VALID,0,
2013-09-19, 08:02:04,VALID,917.008,VALID,0,VALID,81.845,VALID,181.038,VALID,22.2338,VALID,40,VALID,0,
2013-09-19, 08:03:04,VALID,917,VALID,0,VALID,80.6939,VALID,166.319,VALID,22.1769,VALID,29,VALID,0,
2013-09-19, 08:04:04,VALID,917.005,VALID,0,VALID,81.1741,VALID,163.955,VALID,22.1591,VALID,25,VALID,0,
2013-09-19, 08:05:04,VALID,917.018,VALID,0,VALID,81.5858,VALID,167.608,VALID,22.0615,VALID,47,VALID,0,
2013-09-19, 08:06:04,VALID,917.024,VALID,0,VALID,83.0876,VALID,204.783,VALID,22.0013,VALID,31,VALID,0,
2013-09-19, 08:07:04,VALID,917.009,VALID,0,VALID,83.1715,VALID,315.662,VALID,22.1005,VALID,39,VALID,0,
2013-09-19, 08:08:04,VALID,917,VALID,0,VALID,82.0203,VALID,309.645,VALID,22.2567,VALID,16,VALID,0,
2013-09-19, 08:09:04,VALID,916.994,VALID,0,VALID,82.6759,VALID,315.232,VALID,22.3152,VALID,16,VALID,0,
2013-09-19, 08:10:04,VALID,916.965,VALID,0,VALID,82.5082,VALID,351.87,VALID,22.3525,VALID,25,VALID,0,
2013-09-19, 08:11:04,VALID,917.001,VALID,0,VALID,81.6849,VALID,253.776,VALID,22.4891,VALID,21,VALID,0,
2013-09-19, 08:12:04,VALID,917.02,VALID,0,VALID,81.014,VALID,231.428,VALID,22.5884,VALID,352,VALID,0,
2013-09-19, 08:13:04,VALID,917.014,VALID,0,VALID,80.6786,VALID,188.559,VALID,22.686,VALID,346,VALID,0,
2013-09-19, 08:14:04,VALID,917.056,VALID,0,VALID,81.5477,VALID,194.361,VALID,22.6843,VALID,359,VALID,0,
2013-09-19, 08:15:04,VALID,917.082,VALID,0,VALID,80.6024,VALID,306.852,VALID,22.6062,VALID,14,VALID,0,
2013-09-19, 08:16:04,VALID,917.123,VALID,0,VALID,81.0674,VALID,271.719,VALID,22.5477,VALID,14,VALID,0,
2013-09-19, 08:17:04,VALID,917.161,VALID,0,VALID,81.4257,VALID,245.503,VALID,22.6062,VALID,350,VALID,0,
2013-09-19, 08:18:04,VALID,917.087,VALID,0,VALID,81.3037,VALID,228.42,VALID,22.6257,VALID,4,VALID,0,
2013-09-19, 08:19:04,VALID,917.09,VALID,0,VALID,80.5185,VALID,232.61,VALID,22.725,VALID,360,VALID,0,
2013-09-19, 08:20:04,VALID,917.114,VALID,0,VALID,79.3293,VALID,236.8,VALID,22.7463,VALID,342,VALID,0,
2013-09-19, 08:21:04,VALID,917.127,VALID,0,VALID,80.1907,VALID,230.676,VALID,22.6665,VALID,324,VALID,0,
2013-09-19, 08:22:04,VALID,917.141,VALID,0,VALID,81.6239,VALID,254.528,VALID,22.5689,VALID,16,VALID,0,
2013-09-19, 08:23:04,VALID,917.152,VALID,0,VALID,81.7078,VALID,258.933,VALID,22.5477,VALID,18,VALID,0,
2013-09-19, 08:24:04,VALID,917.116,VALID,0,VALID,80.9149,VALID,260.008,VALID,22.6274,VALID,18,VALID,0,
2013-09-19, 08:25:04,VALID,917.125,VALID,0,VALID,80.8768,VALID,231.321,VALID,22.6843,VALID,18,VALID,0,
2013-09-19, 08:26:04,VALID,917.144,VALID,0,VALID,80.4575,VALID,261.619,VALID,22.7428,VALID,14,VALID,0,
2013-09-19, 08:27:04,VALID,917.184,VALID,0,VALID,81.4791,VALID,406.88,VALID,22.7818,VALID,14,VALID,0,
2013-09-19, 08:28:04,VALID,917.22,VALID,0,VALID,81.2351,VALID,275.694,VALID,22.9397,VALID,14,VALID,0,
2013-09-19, 08:29:04,VALID,917.25,VALID,0,VALID,80.5338,VALID,304.381,VALID,23.0763,VALID,14,VALID,0,
2013-09-19, 08:30:04,VALID,917.23,VALID,0,VALID,79.2683,VALID,333.282,VALID,23.0941,VALID,10,VALID,0,
2013-09-19, 08:31:04,VALID,917.253,VALID,0,VALID,78.5059,VALID,322.646,VALID,23.016,VALID,9,VALID,0,
2013-09-19, 08:32:04,VALID,917.293,VALID,0,VALID,80.0687,VALID,379.267,VALID,23.016,VALID,9,VALID,0,
2013-09-19, 08:33:04,VALID,917.275,VALID,0,VALID,80.1831,VALID,416.12,VALID,23.1331,VALID,9,VALID,0,
2013-09-19, 08:34:04,VALID,917.278,VALID,0,VALID,79.779,VALID,340.803,VALID,23.3283,VALID,14,VALID,0,
2013-09-19, 08:35:04,VALID,917.274,VALID,0,VALID,78.323,VALID,361.432,VALID,23.4454,VALID,12,VALID,0,
2013-09-19, 08:36:04,VALID,917.228,VALID,0,VALID,78.788,VALID,321.356,VALID,23.4845,VALID,28,VALID,0,
2013-09-19, 08:37:04,VALID,917.288,VALID,0,VALID,79.2225,VALID,316.522,VALID,23.5235,VALID,25,VALID,0,
2013-09-19, 08:38:04,VALID,917.276,VALID,0,VALID,78.4221,VALID,263.875,VALID,23.4437,VALID,313,VALID,0,
2013-09-19, 08:39:04,VALID,917.283,VALID,0,VALID,79.0929,VALID,383.78,VALID,23.4259,VALID,359,VALID,0,
2013-09-19, 08:40:04,VALID,917.32,VALID,0,VALID,78.1553,VALID,366.697,VALID,23.504,VALID,13,VALID,0,
2013-09-19, 08:41:04,VALID,917.34,VALID,0,VALID,77.4005,VALID,601.241,VALID,23.5626,VALID,16,VALID,0,
2013-09-19, 08:42:04,VALID,917.357,VALID,0,VALID,77.5606,VALID,581.901,VALID,23.6016,VALID,7,VALID,0,
2013-09-19, 08:43:04,VALID,917.342,VALID,0,VALID,76.1122,VALID,637.448,VALID,23.7187,VALID,322,VALID,0,
2013-09-19, 08:44:04,VALID,917.34,VALID,0,VALID,77.614,VALID,654.424,VALID,23.7578,VALID,333,VALID,0,
2013-09-19, 08:45:04,VALID,917.315,VALID,0,VALID,76.7907,VALID,305.885,VALID,23.992,VALID,19,VALID,0,
2013-09-19, 08:46:04,VALID,917.341,VALID,0,VALID,75.3194,VALID,268.281,VALID,24.1482,VALID,8,VALID,0,
2013-09-19, 08:47:04,VALID,917.377,VALID,0,VALID,74.9153,VALID,464.253,VALID,24.2068,VALID,5,VALID,0,
2013-09-19, 08:48:04,VALID,917.366,VALID,0,VALID,74.374,VALID,272.148,VALID,24.3044,VALID,303,VALID,0,
2013-09-19, 08:49:04,VALID,917.393,VALID,0,VALID,74.74,VALID,280.099,VALID,24.3611,VALID,20,VALID,0,
2013-09-19, 08:50:04,VALID,917.389,VALID,0,VALID,75.6548,VALID,307.282,VALID,24.3221,VALID,20,VALID,0,
2013-09-19, 08:51:04,VALID,917.39,VALID,0,VALID,76.7525,VALID,477.146,VALID,24.2263,VALID,47,VALID,0,
2013-09-19, 08:52:04,VALID,917.409,VALID,0,VALID,77.088,VALID,433.847,VALID,24.3044,VALID,32,VALID,0,
2013-09-19, 08:53:04,VALID,917.397,VALID,0,VALID,76.7373,VALID,591.893,VALID,24.2068,VALID,35,VALID,0,
2013-09-19, 08:54:04,VALID,917.377,VALID,0,VALID,76.2342,VALID,290.413,VALID,24.1073,VALID,31,VALID,0,
2013-09-19, 08:55:04,VALID,917.387,VALID,0,VALID,77.6445,VALID,590.282,VALID,23.9316,VALID,11,VALID,0,
2013-09-19, 08:56:04,VALID,917.396,VALID,0,VALID,76.2037,VALID,620.902,VALID,23.9121,VALID,36,VALID,0,
2013-09-19, 08:57:04,VALID,917.378,VALID,0,VALID,75.9902,VALID,574.166,VALID,23.9121,VALID,38,VALID,0,
2013-09-19, 08:58:04,VALID,917.393,VALID,0,VALID,75.914,VALID,674.838,VALID,23.9335,VALID,317,VALID,0,
2013-09-19, 08:59:04,VALID,917.402,VALID,0,VALID,73.8633,VALID,770.353,VALID,23.9707,VALID,267,VALID,0,
2013-09-19, 09:00:04,VALID,917.397,VALID,0,VALID,76.1808,VALID,363.366,VALID,24.0878,VALID,267,VALID,0,
2013-09-19, 09:01:04,VALID,917.445,VALID,0,VALID,77.7741,VALID,754.129,VALID,24.3221,VALID,12,VALID,0,
2013-09-19, 09:02:04,VALID,917.428,VALID,0,VALID,75.3194,VALID,238.09,VALID,24.4392,VALID,19,VALID,0,
2013-09-19, 09:03:04,VALID,917.462,VALID,0,VALID,74.7781,VALID,260.437,VALID,24.4392,VALID,14,VALID,0,
2013-09-19, 09:04:04,VALID,917.463,VALID,0,VALID,74.6561,VALID,252.702,VALID,24.4392,VALID,22,VALID,0,
2013-09-19, 09:05:04,VALID,917.402,VALID,0,VALID,71.7135,VALID,438.038,VALID,24.4392,VALID,27,VALID,0,
2013-09-19, 09:06:04,VALID,917.399,VALID,0,VALID,74.4427,VALID,600.059,VALID,24.2049,VALID,8,VALID,0,
2013-09-19, 09:07:04,VALID,917.394,VALID,0,VALID,76.2189,VALID,686.442,VALID,24.1836,VALID,28,VALID,0,
2013-09-19, 09:08:04,VALID,917.459,VALID,0,VALID,76.6306,VALID,626.167,VALID,24.3593,VALID,15,VALID,0,
2013-09-19, 09:09:04,VALID,917.455,VALID,0,VALID,76.1122,VALID,589.852,VALID,24.5545,VALID,347,VALID,0,
2013-09-19, 09:10:04,VALID,917.482,VALID,0,VALID,74.092,VALID,594.364,VALID,24.4569,VALID,335,VALID,0,
2013-09-19, 09:11:04,VALID,917.416,VALID,0,VALID,74.8543,VALID,544.942,VALID,24.3416,VALID,29,VALID,0,
2013-09-19, 09:12:04,VALID,917.402,VALID,0,VALID,74.5951,VALID,571.694,VALID,24.4178,VALID,19,VALID,0,
2013-09-19, 09:13:04,VALID,917.402,VALID,0,VALID,74.4579,VALID,555.793,VALID,24.5954,VALID,38,VALID,0,
2013-09-19, 09:14:04,VALID,917.405,VALID,0,VALID,74.9153,VALID,606.183,VALID,24.8474,VALID,24,VALID,0,
2013-09-19, 09:15:04,VALID,917.409,VALID,0,VALID,74.9306,VALID,610.588,VALID,25.0055,VALID,12,VALID,0,
2013-09-19, 09:16:04,VALID,917.414,VALID,0,VALID,74.1453,VALID,535.594,VALID,24.9469,VALID,23,VALID,0,
2013-09-19, 09:17:04,VALID,917.398,VALID,0,VALID,73.5431,VALID,556.653,VALID,24.6168,VALID,28,VALID,0,
2013-09-19, 09:18:04,VALID,917.397,VALID,0,VALID,75.3117,VALID,458.344,VALID,24.3044,VALID,30,VALID,0,
2013-09-19, 09:19:04,VALID,917.416,VALID,0,VALID,76.1732,VALID,451.683,VALID,24.244,VALID,29,VALID,0,
2013-09-19, 09:20:04,VALID,917.426,VALID,0,VALID,74.9763,VALID,759.931,VALID,24.3026,VALID,39,VALID,0,
2013-09-19, 09:21:04,VALID,917.439,VALID,0,VALID,75.1821,VALID,677.954,VALID,24.4764,VALID,36,VALID,0,
2013-09-19, 09:22:04,VALID,917.462,VALID,0,VALID,74.435,VALID,585.339,VALID,24.7126,VALID,24,VALID,0,
2013-09-19, 09:23:04,VALID,917.468,VALID,0,VALID,72.2242,VALID,621.762,VALID,24.9274,VALID,8,VALID,0,
2013-09-19, 09:24:04,VALID,917.564,VALID,0,VALID,71.5915,VALID,799.792,VALID,25.0836,VALID,326,VALID,0,
2013-09-19, 09:25:04,VALID,917.534,VALID,0,VALID,70.5395,VALID,816.66,VALID,25.2965,VALID,20,VALID,0,
2013-09-19, 09:26:04,VALID,917.49,VALID,0,VALID,70.265,VALID,798.073,VALID,25.5913,VALID,11,VALID,0,
2013-09-19, 09:27:04,VALID,917.479,VALID,0,VALID,69.5103,VALID,824.933,VALID,25.728,VALID,7,VALID,0,
2013-09-19, 09:28:04,VALID,917.453,VALID,0,VALID,69.0986,VALID,824.933,VALID,25.7671,VALID,290,VALID,0,
2013-09-19, 09:29:04,VALID,917.431,VALID,0,VALID,70.1583,VALID,811.181,VALID,25.7085,VALID,62,VALID,0,
2013-09-19, 09:30:04,VALID,917.426,VALID,0,VALID,69.6856,VALID,794.098,VALID,25.7671,VALID,44,VALID,0,
2013-09-19, 09:31:04,VALID,917.385,VALID,0,VALID,70.6767,VALID,789.048,VALID,25.8648,VALID,8,VALID,0,
2013-09-19, 09:32:04,VALID,917.395,VALID,0,VALID,69.8534,VALID,807.528,VALID,26.0015,VALID,50,VALID,0,
2013-09-19, 09:33:04,VALID,917.378,VALID,0,VALID,69.3502,VALID,795.279,VALID,26.1382,VALID,10,VALID,0,
2013-09-19, 09:34:04,VALID,917.327,VALID,0,VALID,68.6489,VALID,763.047,VALID,26.1187,VALID,66,VALID,0,
2013-09-19, 09:35:04,VALID,917.341,VALID,0,VALID,68.5193,VALID,756.601,VALID,26.1187,VALID,323,VALID,0,
2013-09-19, 09:36:04,VALID,917.355,VALID,0,VALID,68.2982,VALID,767.882,VALID,26.0992,VALID,306,VALID,0,
2013-09-19, 09:37:04,VALID,917.308,VALID,0,VALID,67.7645,VALID,748.865,VALID,25.8062,VALID,77,VALID,0,
2013-09-19, 09:38:04,VALID,917.364,VALID,0,VALID,69.9143,VALID,782.386,VALID,25.6109,VALID,36,VALID,0,
2013-09-19, 09:39:04,VALID,917.367,VALID,0,VALID,68.3668,VALID,834.925,VALID,25.7671,VALID,328,VALID,0,
2013-09-19, 09:40:04,VALID,917.407,VALID,0,VALID,68.2448,VALID,903.902,VALID,25.8257,VALID,16,VALID,0,
2013-09-19, 09:41:04,VALID,917.44,VALID,0,VALID,67.0784,VALID,401.4,VALID,26.021,VALID,250,VALID,0,
2013-09-19, 09:42:04,VALID,917.486,VALID,0,VALID,67.9018,VALID,332.745,VALID,25.9429,VALID,251,VALID,0,
2013-09-19, 09:43:04,VALID,917.476,VALID,0,VALID,67.4977,VALID,310.612,VALID,25.7476,VALID,253,VALID,0,
2013-09-19, 09:44:04,VALID,917.469,VALID,0,VALID,70.4099,VALID,783.891,VALID,25.5894,VALID,297,VALID,0,
2013-09-19, 09:45:04,VALID,917.476,VALID,0,VALID,69.2587,VALID,994.26,VALID,25.7456,VALID,36,VALID,0,
2013-09-19, 09:46:04,VALID,917.484,VALID,0,VALID,68.8699,VALID,301.372,VALID,25.8433,VALID,271,VALID,0,
2013-09-19, 09:47:04,VALID,917.475,VALID,0,VALID,68.6031,VALID,306.315,VALID,25.7651,VALID,310,VALID,0,
2013-09-19, 09:48:04,VALID,917.485,VALID,0,VALID,68.2829,VALID,922.705,VALID,25.5698,VALID,292,VALID,0,
2013-09-19, 09:49:04,VALID,917.481,VALID,0,VALID,69.2969,VALID,906.696,VALID,25.1598,VALID,242,VALID,0,
2013-09-19, 09:50:04,VALID,917.466,VALID,0,VALID,70.3794,VALID,742.203,VALID,25.1031,VALID,237,VALID,0,
2013-09-19, 09:51:04,VALID,917.44,VALID,0,VALID,70.852,VALID,902.935,VALID,25.2965,VALID,41,VALID,0,
2013-09-19, 09:52:04,VALID,917.437,VALID,0,VALID,69.6475,VALID,934.953,VALID,25.4546,VALID,345,VALID,0,
2013-09-19, 09:53:04,VALID,917.435,VALID,0,VALID,71.5076,VALID,353.374,VALID,25.316,VALID,30,VALID,0,
2013-09-19, 09:54:04,VALID,917.449,VALID,0,VALID,75.144,VALID,362.077,VALID,25.357,VALID,17,VALID,0,
2013-09-19, 09:55:04,VALID,917.453,VALID,0,VALID,70.7605,VALID,912.175,VALID,25.5132,VALID,357,VALID,0,
2013-09-19, 09:56:04,VALID,917.46,VALID,0,VALID,66.156,VALID,268.925,VALID,25.5327,VALID,267,VALID,0,
2013-09-19, 09:57:04,VALID,917.438,VALID,0,VALID,68.2372,VALID,265.38,VALID,25.3179,VALID,263,VALID,0,
2013-09-19, 09:58:04,VALID,917.422,VALID,0,VALID,68.1,VALID,259.9,VALID,25.2203,VALID,246,VALID,0,
2013-09-19, 09:59:04,VALID,917.464,VALID,0,VALID,69.9143,VALID,247.759,VALID,25.1226,VALID,268,VALID,0,
2013-09-19, 10:00:04,VALID,917.445,VALID,0,VALID,70.1431,VALID,237.015,VALID,24.9645,VALID,1,VALID,0,
2013-09-19, 10:01:04,VALID,917.435,VALID,0,VALID,70.6081,VALID,213.163,VALID,24.8669,VALID,22,VALID,0,
2013-09-19, 10:02:04,VALID,917.487,VALID,0,VALID,72.0413,VALID,190.171,VALID,24.8669,VALID,19,VALID,0,
2013-09-19, 10:03:04,VALID,917.447,VALID,0,VALID,70.1049,VALID,176.526,VALID,24.8474,VALID,327,VALID,0,
2013-09-19, 10:04:04,VALID,917.447,VALID,0,VALID,72.857,VALID,194.683,VALID,24.7516,VALID,358,VALID,0,
2013-09-19, 10:05:04,VALID,917.428,VALID,0,VALID,71.7973,VALID,862.645,VALID,24.7088,VALID,1,VALID,0,
2013-09-19, 10:06:04,VALID,917.459,VALID,0,VALID,71.8354,VALID,812.47,VALID,24.7888,VALID,5,VALID,0,
2013-09-19, 10:07:04,VALID,917.458,VALID,0,VALID,72.1633,VALID,813.867,VALID,25.0036,VALID,273,VALID,0,
2013-09-19, 10:08:04,VALID,917.483,VALID,0,VALID,71.378,VALID,828.264,VALID,25.1812,VALID,255,VALID,0,
2013-09-19, 10:09:04,VALID,917.484,VALID,0,VALID,70.4709,VALID,738.98,VALID,25.396,VALID,257,VALID,0,
2013-09-19, 10:10:04,VALID,917.494,VALID,0,VALID,68.3973,VALID,842.124,VALID,25.6694,VALID,275,VALID,0,
2013-09-19, 10:11:04,VALID,917.51,VALID,0,VALID,67.3834,VALID,828.801,VALID,25.5503,VALID,260,VALID,0,
2013-09-19, 10:12:04,VALID,917.491,VALID,0,VALID,67.1623,VALID,848.14,VALID,25.4527,VALID,274,VALID,0,
2013-09-19, 10:13:04,VALID,917.414,VALID,0,VALID,65.8816,VALID,803.767,VALID,25.4136,VALID,228,VALID,0,
2013-09-19, 10:14:04,VALID,917.368,VALID,0,VALID,66.4991,VALID,826.545,VALID,25.5113,VALID,181,VALID,0,
2013-09-19, 10:15:04,VALID,917.362,VALID,0,VALID,66.9336,VALID,832.132,VALID,25.7456,VALID,171,VALID,0,
2013-09-19, 10:16:04,VALID,917.339,VALID,0,VALID,67.9628,VALID,761.65,VALID,26.0796,VALID,337,VALID,0,
2013-09-19, 10:17:04,VALID,917.33,VALID,0,VALID,65.1878,VALID,790.23,VALID,26.3336,VALID,9,VALID,0,
2013-09-19, 10:18:04,VALID,917.334,VALID,0,VALID,65.7062,VALID,846.207,VALID,26.5094,VALID,2,VALID,0,
2013-09-19, 10:19:04,VALID,917.34,VALID,0,VALID,63.9071,VALID,889.72,VALID,26.566,VALID,299,VALID,0,
2013-09-19, 10:20:04,VALID,917.305,VALID,0,VALID,63.2591,VALID,899.282,VALID,26.4703,VALID,27,VALID,0,
2013-09-19, 10:21:04,VALID,917.313,VALID,0,VALID,65.4851,VALID,898.315,VALID,26.4097,VALID,16,VALID,0,
2013-09-19, 10:22:04,VALID,917.301,VALID,0,VALID,63.7165,VALID,789.155,VALID,26.4683,VALID,232,VALID,0,
2013-09-19, 10:23:04,VALID,917.318,VALID,0,VALID,66.3313,VALID,820.85,VALID,26.4117,VALID,330,VALID,0,
2013-09-19, 10:24:04,VALID,917.311,VALID,0,VALID,66.6439,VALID,888.431,VALID,26.3902,VALID,328,VALID,0,
2013-09-19, 10:25:04,VALID,917.325,VALID,0,VALID,67.7112,VALID,877.15,VALID,26.4683,VALID,324,VALID,0,
2013-09-19, 10:26:04,VALID,917.284,VALID,0,VALID,66.0416,VALID,741.881,VALID,26.3726,VALID,258,VALID,0,
2013-09-19, 10:27:04,VALID,917.297,VALID,0,VALID,66.4914,VALID,420.31,VALID,26.3316,VALID,2,VALID,0,
2013-09-19, 10:28:04,VALID,917.276,VALID,0,VALID,65.3327,VALID,518.296,VALID,26.2925,VALID,355,VALID,0,
2013-09-19, 10:29:04,VALID,917.218,VALID,0,VALID,67.4825,VALID,634.118,VALID,26.1167,VALID,44,VALID,0,
2013-09-19, 10:30:04,VALID,917.242,VALID,0,VALID,68.5955,VALID,704.062,VALID,26.0581,VALID,40,VALID,0,
2013-09-19, 10:31:04,VALID,917.201,VALID,0,VALID,67.7722,VALID,662.59,VALID,26.2534,VALID,331,VALID,0,
2013-09-19, 10:32:04,VALID,917.231,VALID,0,VALID,66.6668,VALID,652.598,VALID,26.3942,VALID,315,VALID,0,
2013-09-19, 10:33:04,VALID,917.237,VALID,0,VALID,66.9793,VALID,618.861,VALID,26.4683,VALID,358,VALID,0,
2013-09-19, 10:34:04,VALID,917.222,VALID,0,VALID,67.1318,VALID,574.273,VALID,26.605,VALID,338,VALID,0,
2013-09-19, 10:35:04,VALID,917.219,VALID,0,VALID,65.4623,VALID,550.099,VALID,26.4663,VALID,3,VALID,0,
2013-09-19, 10:36:04,VALID,917.234,VALID,0,VALID,65.8892,VALID,579.43,VALID,26.3902,VALID,18,VALID,0,